This is the latest recevied weather packets stored in our database for station/object 9A3XK-13. If no packets are shown the sender has not sent any weather packets the latest 10 day(s).
| Time | Temp. | Humidity | Pressure | Rain* | Wind** | Luminosity | Snow |
|---|---|---|---|---|---|---|---|
| 1777877416 | 14.44° C | 62% | 1018.2 hPa | 0 mm | - | 485 W/m² | - |
| 1777877116 | 13.89° C | 62% | 1018.2 hPa | 0 mm | - | 474 W/m² | - |
| 1777876816 | 13.89° C | 64% | 1018.3 hPa | 0 mm | - | 460 W/m² | - |
| 1777876517 | 13.33° C | 64% | 1018.4 hPa | 0 mm | - | 444 W/m² | - |
| 1777876216 | 12.78° C | 65% | 1018.4 hPa | 0 mm | - | 430 W/m² | - |
| 1777875916 | 12.78° C | 66% | 1018.3 hPa | 0 mm | - | 414 W/m² | - |
| 1777875617 | 12.22° C | 68% | 1018.4 hPa | 0 mm | - | 400 W/m² | - |
| 1777875316 | 12.22° C | 68% | 1018.4 hPa | 0 mm | - | 386 W/m² | - |
| 1777875016 | 11.67° C | 67% | 1018.2 hPa | 0 mm | - | 371 W/m² | - |
| 1777874716 | 11.67° C | 68% | 1018.2 hPa | 0 mm | - | 355 W/m² | - |
| 1777874416 | 11.11° C | 68% | 1018.2 hPa | 0 mm | - | 339 W/m² | - |
| 1777874116 | 11.11° C | 69% | 1018.3 hPa | 0 mm | - | 323 W/m² | - |
| 1777873816 | 10.56° C | 69% | 1018.3 hPa | 0 mm | - | 161 W/m² | - |
| 1777873516 | 10.56° C | 71% | 1018.2 hPa | 0 mm | - | 33 W/m² | - |
| 1777873216 | 10° C | 71% | 1018.2 hPa | 0 mm | - | 33 W/m² | - |
| 1777872916 | 10° C | 71% | 1018.3 hPa | 0 mm | - | 37 W/m² | - |
| 1777872616 | 9.44° C | 72% | 1018.3 hPa | 0 mm | - | 179 W/m² | - |
| 1777872316 | 9.44° C | 72% | 1018.2 hPa | 0 mm | - | 230 W/m² | - |
| 1777872016 | 9.44° C | 72% | 1018.3 hPa | 0 mm | - | 52 W/m² | - |
| 1777871716 | 9.44° C | 72% | 1018.3 hPa | 0 mm | - | 29 W/m² | - |
| 1777871416 | 8.89° C | 72% | 1018.3 hPa | 0 mm | - | 28 W/m² | - |
| 1777871116 | 8.89° C | 73% | 1018.4 hPa | 0 mm | - | 26 W/m² | - |
| 1777870816 | 8.89° C | 73% | 1018.4 hPa | 0 mm | - | 26 W/m² | - |
| 1777870516 | 8.89° C | 74% | 1018.4 hPa | 0 mm | - | 25 W/m² | - |
| 1777870216 | 8.89° C | 75% | 1018.3 hPa | 0 mm | - | 25 W/m² | - |
* Rain latest hour (hover to see other rain measurements)
** Current wind speed in m/s (hover to see current wind gust speed)